| time (UTC) | temp C | wind direction | speed KPH | gust KPH | rain 1hr cm | rain 24hr cm | rain mn cm | humidity % | barometer mb |
| 20260506134523 | 13 | 211 | 0.0 | 4.8 | 0.00 | 0.00 | 0.00 | 79 | 1019.0 |
| 20260506134011 | 13 | 211 | 0.0 | 6.4 | 0.00 | 0.00 | 0.00 | 79 | 1018.9 |
| 20260506133602 | 13 | 212 | 0.0 | 6.4 | 0.00 | 0.00 | 0.00 | 79 | 1018.9 |
| 20260506133050 | 13 | 212 | 1.6 | 6.4 | 0.00 | 0.00 | 0.00 | 79 | 1019.0 |
| 20260506132541 | 13 | 212 | 1.6 | 4.8 | 0.00 | 0.00 | 0.00 | 79 | 1019.0 |
| 20260506132029 | 13 | 213 | 0.0 | 3.2 | 0.00 | 0.00 | 0.00 | 80 | 1019.0 |
| 20260506131518 | 13 | 213 | 0.0 | 0.0 | 0.00 | 0.00 | 0.00 | 79 | 1019.0 |
| 20260506131053 | 13 | 213 | 0.0 | 0.0 | 0.00 | 0.00 | 0.00 | 79 | 1018.9 |
| 20260506130542 | 13 | 213 | 0.0 | 3.2 | 0.00 | 0.00 | 0.00 | 79 | 1018.9 |
| 20260506130030 | 13 | 213 | 0.0 | 3.2 | 0.00 | 0.00 | 0.00 | 79 | 1018.9 |
| 20260506125519 | 13 | 213 | 0.0 | 1.6 | 0.00 | 0.00 | 0.00 | 79 | 1018.8 |
| 20260506125009 | 13 | 213 | 0.0 | 0.0 | 0.00 | 0.00 | 0.00 | 79 | 1018.8 |
| 20260506124601 | 13 | 213 | 0.0 | 1.6 | 0.00 | 0.00 | 0.00 | 79 | 1018.8 |
| 20260506124043 | 13 | 213 | 0.0 | 3.2 | 0.00 | 0.00 | 0.00 | 79 | 1018.7 |
| 20260506123532 | 13 | 213 | 0.0 | 3.2 | 0.00 | 0.00 | 0.00 | 79 | 1018.7 |
| 20260506123020 | 13 | 213 | 0.0 | 4.8 | 0.00 | 0.00 | 0.00 | 79 | 1018.7 |
| 20260506122508 | 13 | 213 | 0.0 | 4.8 | 0.00 | 0.00 | 0.00 | 79 | 1018.6 |
| 20260506122058 | 13 | 213 | 0.0 | 6.4 | 0.00 | 0.00 | 0.00 | 79 | 1018.6 |
| 20260506121547 | 13 | 213 | 1.6 | 6.4 | 0.00 | 0.00 | 0.00 | 79 | 1018.6 |
| 20260506121024 | 13 | 214 | 0.0 | 3.2 | 0.00 | 0.00 | 0.00 | 79 | 1018.5 |
| 20260506120512 | 13 | 214 | 0.0 | 0.0 | 0.00 | 0.00 | 0.00 | 79 | 1018.5 |
| 20260506120110 | 13 | 214 | 0.0 | 0.0 | 0.00 | 0.00 | 0.00 | 79 | 1018.5 |
| 20260506115550 | 13 | 214 | 0.0 | 1.6 | 0.00 | 0.00 | 0.00 | 79 | 1018.5 |
| 20260506115037 | 13 | 214 | 0.0 | 3.2 | 0.00 | 0.00 | 0.00 | 78 | 1018.5 |
| 20260506114533 | 13 | 214 | 1.6 | 3.2 | 0.00 | 0.00 | 0.00 | 78 | 1018.5 |
| 20260506114013 | 13 | 214 | 0.0 | 3.2 | 0.00 | 0.00 | 0.00 | 78 | 1018.5 |
| 20260506113502 | 13 | 214 | 0.0 | 4.8 | 0.00 | 0.00 | 0.00 | 78 | 1018.4 |
| 20260506113056 | 13 | 214 | 1.6 | 4.8 | 0.00 | 0.00 | 0.00 | 78 | 1018.4 |
| 20260506112540 | 13 | 214 | 0.0 | 4.8 | 0.00 | 0.00 | 0.00 | 78 | 1018.3 |
| 20260506112028 | 13 | 214 | 0.0 | 4.8 | 0.00 | 0.00 | 0.00 | 78 | 1018.3 |
| 20260506111516 | 13 | 214 | 0.0 | 4.8 | 0.00 | 0.00 | 0.00 | 78 | 1018.2 |
| 20260506111058 | 13 | 214 | 0.0 | 4.8 | 0.00 | 0.00 | 0.00 | 78 | 1018.2 |
| 20260506110543 | 13 | 214 | 1.6 | 6.4 | 0.00 | 0.00 | 0.00 | 78 | 1018.1 |
| 20260506110034 | 13 | 215 | 0.0 | 8.0 | 0.00 | 0.00 | 0.00 | 78 | 1018.0 |
| 20260506105518 | 13 | 211 | 3.2 | 8.0 | 0.00 | 0.00 | 0.00 | 77 | 1018.0 |
| 20260506105010 | 13 | 212 | 1.6 | 8.0 | 0.00 | 0.00 | 0.00 | 77 | 1018.0 |
| 20260506104559 | 13 | 212 | 1.6 | 8.0 | 0.00 | 0.00 | 0.00 | 77 | 1018.0 |
| 20260506104045 | 13 | 216 | 0.0 | 3.2 | 0.00 | 0.00 | 0.00 | 77 | 1017.9 |
| 20260506103533 | 13 | 216 | 0.0 | 4.8 | 0.00 | 0.00 | 0.00 | 77 | 1017.9 |
| 20260506103022 | 13 | 216 | 0.0 | 4.8 | 0.00 | 0.00 | 0.00 | 77 | 1017.8 |
| 20260506102508 | 13 | 216 | 0.0 | 8.0 | 0.00 | 0.00 | 0.00 | 77 | 1017.9 |
| 20260506102059 | 13 | 216 | 1.6 | 8.0 | 0.00 | 0.00 | 0.00 | 77 | 1017.8 |
| 20260506101556 | 13 | 219 | 3.2 | 6.4 | 0.00 | 0.00 | 0.00 | 77 | 1017.7 |
| 20260506101023 | 13 | 220 | 0.0 | 4.8 | 0.00 | 0.00 | 0.00 | 77 | 1017.7 |
| 20260506100511 | 13 | 221 | 0.0 | 4.8 | 0.00 | 0.00 | 0.00 | 77 | 1017.8 |
| 20260506100120 | 13 | 220 | 0.0 | 3.2 | 0.00 | 0.00 | 0.00 | 77 | 1017.8 |
| 20260506095551 | 13 | 220 | 0.0 | 6.4 | 0.00 | 0.00 | 0.00 | 77 | 1017.7 |
| 20260506095038 | 13 | 220 | 1.6 | 6.4 | 0.00 | 0.00 | 0.00 | 77 | 1017.7 |
| 20260506094525 | 13 | 220 | 3.2 | 6.4 | 0.00 | 0.00 | 0.00 | 77 | 1017.7 |
| 20260506094015 | 13 | 220 | 0.0 | 4.8 | 0.00 | 0.00 | 0.00 | 76 | 1017.7 |
| 20260506093602 | 13 | 220 | 1.6 | 4.8 | 0.00 | 0.00 | 0.00 | 77 | 1017.7 |
| 20260506093051 | 13 | 221 | 0.0 | 6.4 | 0.00 | 0.00 | 0.00 | 76 | 1017.7 |
| 20260506092538 | 14 | 222 | 0.0 | 6.4 | 0.00 | 0.00 | 0.00 | 76 | 1017.7 |
| 20260506092029 | 14 | 222 | 0.0 | 6.4 | 0.00 | 0.00 | 0.00 | 76 | 1017.7 |
| 20260506091515 | 14 | 219 | 0.0 | 4.8 | 0.00 | 0.00 | 0.00 | 76 | 1017.7 |
| 20260506091053 | 14 | 219 | 1.6 | 6.4 | 0.00 | 0.00 | 0.00 | 76 | 1017.7 |
| 20260506090541 | 14 | 221 | 1.6 | 6.4 | 0.00 | 0.00 | 0.00 | 76 | 1017.7 |
| 20260506090029 | 14 | 222 | 1.6 | 6.4 | 0.00 | 0.00 | 0.00 | 76 | 1017.7 |
| 20260506085517 | 14 | 222 | 1.6 | 6.4 | 0.00 | 0.03 | 0.00 | 75 | 1017.8 |
| 20260506085005 | 14 | 223 | 1.6 | 6.4 | 0.00 | 0.03 | 0.00 | 75 | 1017.7 |
| 20260506084621 | 14 | 226 | 1.6 | 8.0 | 0.00 | 0.03 | 0.00 | 75 | 1017.7 |
| 20260506084043 | 14 | 243 | 1.6 | 9.7 | 0.00 | 0.03 | 0.00 | 75 | 1017.7 |
| 20260506083531 | 14 | 236 | 1.6 | 6.4 | 0.00 | 0.03 | 0.00 | 76 | 1017.7 |
| 20260506083018 | 14 | 230 | 1.6 | 6.4 | 0.00 | 0.03 | 0.00 | 76 | 1017.8 |
| 20260506082508 | 14 | 222 | 1.6 | 6.4 | 0.00 | 0.03 | 0.00 | 76 | 1017.8 |
| 20260506082057 | 14 | 220 | 1.6 | 6.4 | 0.00 | 0.03 | 0.00 | 76 | 1017.8 |
| 20260506081552 | 14 | 229 | 1.6 | 6.4 | 0.00 | 0.03 | 0.00 | 76 | 1017.8 |
| 20260506081022 | 14 | 231 | 3.2 | 8.0 | 0.00 | 0.03 | 0.00 | 76 | 1017.8 |
| 20260506080509 | 14 | 214 | 1.6 | 8.0 | 0.00 | 0.03 | 0.00 | 76 | 1017.7 |
| 20260506073051 | 14 | 231 | 1.6 | 9.7 | 0.00 | 0.08 | 0.00 | 76 | 1017.5 |
| 20260506072537 | 14 | 253 | 3.2 | 6.4 | 0.00 | 0.08 | 0.00 | 76 | 1017.5 |
| 20260506072025 | 14 | 258 | 0.0 | 6.4 | 0.00 | 0.08 | 0.00 | 76 | 1017.4 |
| 20260506071513 | 14 | 256 | 1.6 | 6.4 | 0.00 | 0.08 | 0.00 | 76 | 1017.3 |
| 20260506071052 | 14 | 249 | 1.6 | 6.4 | 0.00 | 0.08 | 0.00 | 76 | 1017.3 |
| 20260506070540 | 14 | 244 | 0.0 | 6.4 | 0.00 | 0.08 | 0.00 | 77 | 1017.3 |
| 20260506062506 | 14 | 260 | 4.8 | 14.5 | 0.00 | 0.25 | 0.08 | 76 | 1016.9 |
| 20260506062056 | 14 | 236 | 1.6 | 12.9 | 0.00 | 0.25 | 0.08 | 76 | 1016.8 |
| 20260506061543 | 14 | 255 | 4.8 | 16.1 | 0.00 | 0.25 | 0.08 | 76 | 1016.8 |
| 20260506061020 | 14 | 301 | 6.4 | 14.5 | 0.00 | 0.25 | 0.08 | 76 | 1016.7 |
| 20260506060508 | 15 | 226 | 3.2 | 9.7 | 0.00 | 0.25 | 0.08 | 76 | 1016.7 |
| 20260506051052 | 15 | 278 | 4.8 | 14.5 | 0.00 | 0.33 | 0.08 | 76 | 1016.3 |
| 20260506050541 | 15 | 247 | 4.8 | 14.5 | 0.00 | 0.33 | 0.08 | 75 | 1016.3 |
| 20260506045003 | 15 | 264 | 6.4 | 14.5 | 0.00 | 0.46 | 0.08 | 75 | 1016.2 |
| 20260506044702 | 15 | 266 | 3.2 | 11.3 | 0.00 | 0.46 | 0.08 | 74 | 1016.1 |
| 20260506044041 | 15 | 216 | 1.6 | 11.3 | 0.00 | 0.46 | 0.08 | 74 | 1016.0 |
| 20260506043529 | 15 | 246 | 1.6 | 16.1 | 0.00 | 0.46 | 0.08 | 74 | 1015.8 |
| 20260506043017 | 15 | 246 | 6.4 | 16.1 | 0.00 | 0.46 | 0.08 | 73 | 1015.7 |
| 20260506042505 | 15 | 241 | 4.8 | 16.1 | 0.00 | 0.46 | 0.08 | 73 | 1015.6 |
| 20260506042055 | 16 | 228 | 4.8 | 16.1 | 0.00 | 0.46 | 0.08 | 73 | 1015.6 |
| 20260506041556 | 16 | 267 | 6.4 | 14.5 | 0.00 | 0.46 | 0.08 | 73 | 1015.7 |
| 20260506041026 | 16 | 213 | 4.8 | 11.3 | 0.00 | 0.46 | 0.08 | 73 | 1015.6 |
| 20260506040508 | 16 | 228 | 4.8 | 9.7 | 0.00 | 0.46 | 0.08 | 72 | 1015.6 |
| 20260506040058 | 16 | 258 | 4.8 | 12.9 | 0.00 | 0.46 | 0.08 | 72 | 1015.6 |
| 20260506035546 | 16 | 277 | 3.2 | 16.1 | 0.00 | 0.64 | 0.08 | 72 | 1015.6 |
| 20260506035034 | 16 | 258 | 4.8 | 17.7 | 0.00 | 0.64 | 0.08 | 72 | 1015.6 |
| 20260506034543 | 16 | 260 | 6.4 | 17.7 | 0.00 | 0.64 | 0.08 | 71 | 1015.4 |
| 20260506034009 | 16 | 265 | 4.8 | 12.9 | 0.00 | 0.64 | 0.08 | 71 | 1015.4 |
| 20260506033600 | 16 | 239 | 3.2 | 17.7 | 0.00 | 0.64 | 0.08 | 72 | 1015.3 |
| 20260506033051 | 17 | 228 | 4.8 | 17.7 | 0.00 | 0.64 | 0.08 | 72 | 1015.2 |
| 20260506032537 | 17 | 241 | 3.2 | 8.0 | 0.00 | 0.64 | 0.08 | 72 | 1015.1 |
| 20260506032025 | 17 | 227 | 0.0 | 4.8 | 0.00 | 0.64 | 0.08 | 72 | 1015.0 |
| 20260506031512 | 17 | 227 | 1.6 | 4.8 | 0.00 | 0.64 | 0.08 | 72 | 1014.9 |
| 20260506031054 | 17 | 227 | 1.6 | 4.8 | 0.00 | 0.64 | 0.08 | 72 | 1014.8 |
| 20260506030544 | 17 | 228 | 0.0 | 3.2 | 0.00 | 0.64 | 0.08 | 71 | 1014.9 |
| 20260506030028 | 17 | 228 | 0.0 | 4.8 | 0.00 | 0.64 | 0.08 | 71 | 1014.8 |
| 20260506025516 | 17 | 228 | 1.6 | 6.4 | 0.00 | 0.64 | 0.08 | 71 | 1014.8 |
| 20260506025004 | 17 | 228 | 1.6 | 6.4 | 0.00 | 0.64 | 0.08 | 71 | 1014.7 |
| 20260506024555 | 17 | 230 | 1.6 | 4.8 | 0.00 | 0.64 | 0.08 | 70 | 1014.6 |
| 20260506024043 | 17 | 230 | 0.0 | 8.0 | 0.00 | 0.64 | 0.08 | 70 | 1014.4 |
| 20260506023531 | 17 | 228 | 3.2 | 8.0 | 0.00 | 0.64 | 0.08 | 69 | 1014.3 |
| 20260506023018 | 17 | 230 | 3.2 | 8.0 | 0.00 | 0.64 | 0.08 | 70 | 1014.2 |
| 20260506022507 | 17 | 225 | 1.6 | 6.4 | 0.00 | 0.64 | 0.08 | 70 | 1014.3 |
| 20260506022057 | 17 | 220 | 0.0 | 8.0 | 0.00 | 0.64 | 0.08 | 70 | 1014.3 |
| 20260506021545 | 17 | 207 | 1.6 | 8.0 | 0.00 | 0.64 | 0.08 | 69 | 1014.3 |
| 20260506021021 | 17 | 209 | 1.6 | 9.7 | 0.00 | 0.64 | 0.08 | 69 | 1014.3 |
| 20260506020509 | 17 | 204 | 3.2 | 9.7 | 0.00 | 0.64 | 0.08 | 70 | 1014.3 |
| 20260506020100 | 17 | 204 | 1.6 | 9.7 | 0.00 | 0.64 | 0.08 | 69 | 1014.3 |
| 20260506015548 | 18 | 191 | 1.6 | 9.7 | 0.00 | 0.66 | 0.08 | 69 | 1014.4 |
| 20260506015039 | 18 | 204 | 1.6 | 11.3 | 0.00 | 0.66 | 0.08 | 68 | 1014.3 |
| 20260506014527 | 18 | 199 | 1.6 | 11.3 | 0.00 | 0.66 | 0.08 | 68 | 1014.2 |
| 20260506014011 | 18 | 179 | 3.2 | 11.3 | 0.00 | 0.66 | 0.08 | 67 | 1014.2 |
| 20260506013601 | 18 | 174 | 3.2 | 11.3 | 0.00 | 0.66 | 0.08 | 66 | 1014.2 |
| 20260506013049 | 18 | 193 | 1.6 | 9.7 | 0.00 | 0.66 | 0.08 | 65 | 1014.3 |
| 20260506012537 | 18 | 193 | 3.2 | 9.7 | 0.00 | 0.66 | 0.08 | 65 | 1014.2 |
| 20260506012026 | 18 | 200 | 1.6 | 9.7 | 0.00 | 0.66 | 0.08 | 66 | 1014.1 |
| 20260506011516 | 17 | 185 | 0.0 | 11.3 | 0.00 | 0.66 | 0.08 | 67 | 1014.1 |
| 20260506011052 | 17 | 215 | 3.2 | 9.7 | 0.00 | 0.66 | 0.08 | 67 | 1014.0 |
| 20260506010540 | 17 | 223 | 1.6 | 8.0 | 0.00 | 0.66 | 0.08 | 68 | 1014.0 |
| 20260506010029 | 17 | 223 | 0.0 | 8.0 | 0.00 | 0.66 | 0.08 | 68 | 1014.0 |
| 20260506005516 | 17 | 211 | 3.2 | 8.0 | 0.00 | 0.69 | 0.08 | 69 | 1013.9 |
| 20260506005003 | 17 | 195 | 3.2 | 14.5 | 0.00 | 0.69 | 0.08 | 69 | 1014.0 |
| 20260506004624 | 17 | 198 | 3.2 | 14.5 | 0.00 | 0.69 | 0.08 | 68 | 1014.0 |
| 20260506004042 | 17 | 185 | 4.8 | 12.9 | 0.00 | 0.69 | 0.08 | 68 | 1014.0 |
| 20260506003534 | 17 | 190 | 3.2 | 9.7 | 0.00 | 0.69 | 0.08 | 68 | 1014.0 |
| 20260506003033 | 17 | 194 | 3.2 | 9.7 | 0.00 | 0.69 | 0.08 | 69 | 1014.0 |
| 20260506002511 | 17 | 192 | 3.2 | 9.7 | 0.00 | 0.69 | 0.08 | 68 | 1014.0 |
| 20260506002057 | 17 | 212 | 1.6 | 9.7 | 0.00 | 0.69 | 0.08 | 68 | 1014.0 |
| 20260506001549 | 17 | 216 | 4.8 | 9.7 | 0.00 | 0.69 | 0.08 | 67 | 1013.9 |
| 20260506001022 | 17 | 216 | 3.2 | 9.7 | 0.00 | 0.69 | 0.08 | 68 | 1014.0 |
| 20260506000510 | 18 | 204 | 1.6 | 11.3 | 0.00 | 0.69 | 0.08 | 68 | 1014.0 |
| 20260506000101 | 17 | 191 | 0.0 | 11.3 | 0.00 | 0.69 | 0.08 | 68 | 1013.9 |
| 20260505235548 | 18 | 214 | 1.6 | 9.7 | 0.00 | 0.71 | 0.08 | 68 | 1013.9 |
| 20260505235036 | 18 | 209 | 3.2 | 9.7 | 0.00 | 0.71 | 0.08 | 68 | 1013.9 |
| 20260505234534 | 18 | 186 | 1.6 | 9.7 | 0.00 | 0.71 | 0.08 | 68 | 1013.9 |
| 20260505234018 | 18 | 215 | 1.6 | 9.7 | 0.00 | 0.71 | 0.08 | 68 | 1013.8 |
| 20260505233601 | 18 | 199 | 1.6 | 9.7 | 0.00 | 0.71 | 0.08 | 68 | 1013.9 |
| 20260505233050 | 18 | 233 | 3.2 | 9.7 | 0.00 | 0.71 | 0.08 | 68 | 1013.9 |
| 20260505232538 | 17 | 210 | 0.0 | 9.7 | 0.00 | 0.71 | 0.08 | 69 | 1013.9 |
| 20260505232028 | 17 | 208 | 1.6 | 11.3 | 0.00 | 0.71 | 0.08 | 68 | 1013.8 |
| 20260505231516 | 17 | 188 | 3.2 | 11.3 | 0.00 | 0.71 | 0.08 | 68 | 1013.8 |
| 20260505231055 | 17 | 233 | 1.6 | 8.0 | 0.00 | 0.71 | 0.08 | 68 | 1013.8 |
| 20260505230540 | 17 | 197 | 3.2 | 9.7 | 0.00 | 0.71 | 0.08 | 68 | 1013.9 |
| 20260505230038 | 18 | 208 | 4.8 | 9.7 | 0.00 | 0.71 | 0.08 | 68 | 1013.9 |
| 20260505225521 | 18 | 251 | 3.2 | 6.4 | 0.00 | 0.71 | 0.08 | 67 | 1013.9 |
| 20260505225007 | 18 | 258 | 0.0 | 9.7 | 0.00 | 0.71 | 0.08 | 67 | 1014.0 |
| 20260505224556 | 18 | 213 | 1.6 | 9.7 | 0.00 | 0.71 | 0.08 | 67 | 1014.0 |
| 20260505224043 | 18 | 217 | 3.2 | 9.7 | 0.00 | 0.71 | 0.08 | 66 | 1014.0 |
| 20260505223533 | 18 | 214 | 4.8 | 9.7 | 0.00 | 0.71 | 0.08 | 64 | 1014.1 |
| 20260505223020 | 18 | 226 | 0.0 | 6.4 | 0.00 | 0.71 | 0.08 | 64 | 1014.1 |
| 20260505222509 | 19 | 221 | 1.6 | 6.4 | 0.00 | 0.71 | 0.08 | 64 | 1014.1 |
| 20260505222059 | 19 | 215 | 1.6 | 4.8 | 0.00 | 0.71 | 0.08 | 63 | 1014.2 |
| 20260505221548 | 19 | 209 | 1.6 | 4.8 | 0.00 | 0.71 | 0.08 | 66 | 1014.2 |
| 20260505221022 | 19 | 215 | 0.0 | 4.8 | 0.00 | 0.71 | 0.08 | 63 | 1014.3 |
| 20260505220512 | 19 | 215 | 0.0 | 3.2 | 0.00 | 0.71 | 0.08 | 66 | 1014.3 |
| 20260505220107 | 18 | 215 | 1.6 | 4.8 | 0.00 | 0.71 | 0.08 | 65 | 1014.3 |
| 20260505215549 | 18 | 215 | 1.6 | 4.8 | 0.00 | 0.71 | 0.08 | 66 | 1014.3 |
| 20260505215038 | 18 | 219 | 0.0 | 4.8 | 0.00 | 0.71 | 0.08 | 68 | 1014.4 |
| 20260505214535 | 18 | 224 | 0.0 | 4.8 | 0.00 | 0.71 | 0.08 | 69 | 1014.3 |
| 20260505214014 | 18 | 213 | 0.0 | 0.0 | 0.00 | 0.71 | 0.08 | 68 | 1014.4 |
| 20260505213501 | 17 | 213 | 0.0 | 4.8 | 0.00 | 0.71 | 0.08 | 71 | 1014.5 |
| 20260505213101 | 17 | 213 | 0.0 | 4.8 | 0.00 | 0.71 | 0.08 | 71 | 1014.5 |
| 20260505212540 | 17 | 216 | 0.0 | 4.8 | 0.00 | 0.71 | 0.08 | 71 | 1014.5 |
| 20260505212028 | 17 | 216 | 1.6 | 4.8 | 0.00 | 0.71 | 0.08 | 70 | 1014.6 |
| 20260505211517 | 17 | 216 | 1.6 | 4.8 | 0.00 | 0.71 | 0.08 | 71 | 1014.5 |
| 20260505211100 | 17 | 217 | 0.0 | 6.4 | 0.00 | 0.71 | 0.08 | 73 | 1014.6 |
| 20260505210544 | 16 | 217 | 1.6 | 8.0 | 0.00 | 0.71 | 0.08 | 73 | 1014.6 |
| 20260505210032 | 16 | 217 | 0.0 | 8.0 | 0.00 | 0.71 | 0.08 | 73 | 1014.5 |
| 20260505205523 | 16 | 216 | 1.6 | 8.0 | 0.00 | 0.71 | 0.08 | 74 | 1014.5 |
| 20260505205007 | 16 | 212 | 3.2 | 14.5 | 0.00 | 0.71 | 0.08 | 74 | 1014.7 |
| 20260505204606 | 16 | 236 | 4.8 | 14.5 | 0.00 | 0.71 | 0.08 | 74 | 1014.6 |
| 20260505204047 | 16 | 204 | 1.6 | 12.9 | 0.00 | 0.71 | 0.08 | 75 | 1014.6 |
| 20260505203535 | 16 | 174 | 1.6 | 9.7 | 0.00 | 0.71 | 0.08 | 74 | 1014.6 |
| 20260505203023 | 16 | 200 | 3.2 | 12.9 | 0.00 | 0.71 | 0.08 | 74 | 1014.7 |
| 20260505202510 | 17 | 216 | 4.8 | 12.9 | 0.00 | 0.71 | 0.08 | 73 | 1014.6 |
| 20260505202101 | 17 | 215 | 1.6 | 11.3 | 0.00 | 0.71 | 0.08 | 73 | 1014.6 |
| 20260505201549 | 17 | 214 | 1.6 | 11.3 | 0.00 | 0.71 | 0.08 | 73 | 1014.7 |
| 20260505201026 | 17 | 201 | 3.2 | 8.0 | 0.00 | 0.71 | 0.08 | 72 | 1014.7 |
| 20260505200514 | 17 | 207 | 3.2 | 9.7 | 0.00 | 0.71 | 0.08 | 72 | 1014.7 |
| 20260505200004 | 17 | 213 | 1.6 | 9.7 | 0.00 | 0.71 | 0.08 | 72 | 1014.7 |
| 20260505195557 | 17 | 197 | 1.6 | 9.7 | 0.00 | 0.71 | 0.08 | 71 | 1014.8 |
| 20260505195041 | 17 | 153 | 1.6 | 4.8 | 0.00 | 0.71 | 0.08 | 69 | 1014.8 |
| 20260505194535 | 17 | 154 | 0.0 | 8.0 | 0.00 | 0.71 | 0.08 | 69 | 1014.8 |
| 20260505194018 | 17 | 184 | 0.0 | 8.0 | 0.00 | 0.71 | 0.08 | 69 | 1014.8 |
| 20260505193506 | 17 | 191 | 1.6 | 9.7 | 0.00 | 0.71 | 0.08 | 69 | 1014.7 |
| 20260505193059 | 17 | 206 | 0.0 | 9.7 | 0.00 | 0.71 | 0.08 | 68 | 1014.7 |
| 20260505192544 | 17 | 125 | 0.0 | 4.8 | 0.00 | 0.71 | 0.08 | 69 | 1014.8 |
| 20260505192034 | 17 | 125 | 0.0 | 8.0 | 0.00 | 0.71 | 0.08 | 67 | 1014.8 |
| 20260505191527 | 17 | 126 | 3.2 | 8.0 | 0.00 | 0.71 | 0.08 | 68 | 1014.8 |
| 20260505191101 | 17 | 147 | 1.6 | 8.0 | 0.00 | 0.71 | 0.08 | 70 | 1014.8 |
| 20260505190551 | 17 | 147 | 0.0 | 8.0 | 0.00 | 0.71 | 0.08 | 71 | 1014.8 |
| 20260505190037 | 16 | 211 | 1.6 | 4.8 | 0.00 | 0.71 | 0.08 | 74 | 1014.8 |
| 20260505185522 | 16 | 216 | 0.0 | 4.8 | 0.00 | 0.71 | 0.08 | 72 | 1014.7 |
| 20260505185010 | 16 | 216 | 3.2 | 4.8 | 0.00 | 0.71 | 0.08 | 72 | 1014.7 |
| 20260505184611 | 16 | 216 | 0.0 | 6.4 | 0.00 | 0.71 | 0.08 | 72 | 1014.7 |
| 20260505184052 | 16 | 211 | 3.2 | 6.4 | 0.00 | 0.71 | 0.08 | 73 | 1014.6 |
| 20260505183537 | 16 | 198 | 0.0 | 3.2 | 0.00 | 0.71 | 0.08 | 75 | 1014.6 |
| 20260505183028 | 15 | 197 | 0.0 | 1.6 | 0.00 | 0.71 | 0.08 | 77 | 1014.7 |
| 20260505182513 | 15 | 197 | 0.0 | 1.6 | 0.00 | 0.71 | 0.08 | 76 | 1014.7 |
| 20260505182001 | 15 | 197 | 0.0 | 4.8 | 0.00 | 0.71 | 0.08 | 77 | 1014.7 |
| 20260505181551 | 15 | 197 | 0.0 | 4.8 | 0.00 | 0.71 | 0.08 | 76 | 1014.7 |
| 20260505181028 | 15 | 192 | 0.0 | 3.2 | 0.00 | 0.71 | 0.08 | 78 | 1014.6 |
| 20260505180516 | 15 | 192 | 0.0 | 3.2 | 0.00 | 0.71 | 0.08 | 78 | 1014.5 |
| 20260505180004 | 15 | 192 | 0.0 | 6.4 | 0.00 | 0.71 | 0.08 | 78 | 1014.5 |
| 20260505175553 | 15 | 192 | 0.0 | 8.0 | 0.00 | 0.71 | 0.08 | 80 | 1014.5 |
| 20260505175044 | 14 | 192 | 1.6 | 8.0 | 0.00 | 0.71 | 0.08 | 80 | 1014.5 |
| 20260505174538 | 14 | 208 | 0.0 | 6.4 | 0.00 | 0.71 | 0.08 | 82 | 1014.5 |
| 20260505174018 | 13 | 207 | 1.6 | 6.4 | 0.00 | 0.71 | 0.08 | 83 | 1014.5 |
| 20260505173506 | 13 | 207 | 1.6 | 8.0 | 0.00 | 0.71 | 0.08 | 83 | 1014.5 |
| 20260505173055 | 13 | 201 | 3.2 | 8.0 | 0.00 | 0.71 | 0.08 | 83 | 1014.5 |
| 20260505172543 | 13 | 199 | 1.6 | 8.0 | 0.00 | 0.71 | 0.08 | 84 | 1014.5 |
| 20260505172031 | 13 | 200 | 1.6 | 6.4 | 0.00 | 0.71 | 0.08 | 85 | 1014.5 |
| 20260505171520 | 13 | 201 | 1.6 | 8.0 | 0.00 | 0.71 | 0.08 | 85 | 1014.5 |
| 20260505171103 | 13 | 200 | 1.6 | 8.0 | 0.00 | 0.71 | 0.08 | 86 | 1014.4 |
| 20260505170546 | 13 | 189 | 3.2 | 8.0 | 0.00 | 0.71 | 0.08 | 86 | 1014.4 |
| 20260505170039 | 13 | 185 | 0.0 | 6.4 | 0.00 | 0.71 | 0.08 | 87 | 1014.4 |
| 20260505165528 | 13 | 185 | 1.6 | 8.0 | 0.00 | 0.71 | 0.08 | 87 | 1014.4 |
| 20260505165011 | 13 | 184 | 3.2 | 8.0 | 0.00 | 0.71 | 0.08 | 88 | 1014.4 |
| 20260505164602 | 12 | 179 | 0.0 | 9.7 | 0.00 | 0.71 | 0.08 | 88 | 1014.5 |
| 20260505164053 | 12 | 187 | 1.6 | 9.7 | 0.00 | 0.71 | 0.08 | 88 | 1014.4 |
| 20260505163539 | 12 | 195 | 0.0 | 9.7 | 0.00 | 0.71 | 0.08 | 89 | 1014.4 |
| 20260505163026 | 12 | 193 | 3.2 | 8.0 | 0.00 | 0.71 | 0.08 | 89 | 1014.4 |
| 20260505162514 | 12 | 197 | 0.0 | 4.8 | 0.00 | 0.71 | 0.08 | 91 | 1014.4 |
| 20260505162002 | 12 | 197 | 0.0 | 6.4 | 0.00 | 0.71 | 0.08 | 91 | 1014.4 |
| 20260505161601 | 12 | 198 | 1.6 | 9.7 | 0.00 | 0.71 | 0.08 | 91 | 1014.4 |
| 20260505161032 | 12 | 197 | 4.8 | 9.7 | 0.00 | 0.71 | 0.08 | 91 | 1014.3 |
| 20260505160518 | 12 | 187 | 0.0 | 4.8 | 0.00 | 0.71 | 0.08 | 91 | 1014.3 |
| 20260505153100 | 11 | 201 | 0.0 | 9.7 | 0.00 | 0.71 | 0.08 | 91 | 1014.2 |
| 20260505152545 | 11 | 199 | 1.6 | 6.4 | 0.00 | 0.71 | 0.08 | 91 | 1014.2 |
| 20260505152033 | 11 | 199 | 0.0 | 6.4 | 0.00 | 0.71 | 0.08 | 91 | 1014.1 |
| 20260505151521 | 11 | 197 | 1.6 | 6.4 | 0.00 | 0.71 | 0.08 | 91 | 1014.1 |
| 20260505151101 | 11 | 197 | 0.0 | 8.0 | 0.00 | 0.71 | 0.08 | 91 | 1014.1 |
| 20260505150552 | 11 | 197 | 0.0 | 8.0 | 0.00 | 0.71 | 0.08 | 91 | 1014.0 |
| 20260505140518 | 11 | 192 | 0.0 | 4.8 | 0.00 | 0.71 | 0.08 | 91 | 1013.6 |